"Pseudo-MPEC" for P1186tj

Created 2020 Oct 30 9:07:10 UT using Find_Orb

Click here for an explanation of pseudo-MPECs

 
 Astrometry: 
     P1186tj  C2020 10 16jRW9\TwdEet'Q:73H*'%g,yZ(fM%VXF04`FB]dgH_AstrometryHF51
     P1186tj  C2020 10 16Sy:A!Dredacted;e/F7FM+sIo-coOYqrsUq3PMXS-Cb3Cy3po6!hF51
     P1186tj  C2020 10 169JO?YS*XK#3w7d$Iq1lYE6X2`'HJ;fS=`2s9pQt?oe]s4T+Z3*JEF51
     P1186tj  C2020 10 161?MPZm^RSp%FAWeoPZZgTHA9\.C--_rg$Er_lV7FpFG'eWvxTxsGF51
     P1186tj KC2020 10 17['jhhOclick`0T_(mQ^^QdTx2\c(mcYlqWe8G.Zi8tyl3'9?ewp*474
     P1186tj KC2020 10 17+HgfD[)W'!5ls'9\)tj(@$dYwO0m3;pO]\Nre+y@tk:V_PrhJbJD474
     P1186tj KC2020 10 17@4W=geQ\[[?qc76H6Ww\KSA!K/%hereg3#bZ%t!D%]Y:WP#HA_x#474
     P1186tj KC2020 10 19AIV$[%]8`dntDhuBnX.i,f8MlQ%ILN%h,:mC+)[#%BxGj1#ST0?l474
     P1186tj KC2020 10 197eC=4oEm7,-*O#6Y^j6=fi?WBd.,]!Dx;6H`]_ljjBGZU,$kIDZB474
     P1186tj |C2020 10 30U4e?CKxI$Pdnx%Q^qu(mC)@n,dfor(O@=n9:?pliNB-CA2NY^$;+807
     P1186tj |C2020 10 30!W.^QVj;^s5UexplanationgOIaE;*s^7pY$ylb#-GXUo1`0JZY!807
     P1186tj |C2020 10 30))b(xFU68Lo%;X\%:@[V5FpPPR]3ne1o@H-FqIK3'-5,GVAWEhNE807

Station data:
(474) Mount John Observatory, Lake Tekapo  (S43.987388 E170.464960)  New
   Zealand.  Observers A. C. Gilmore, P. M. Kilmartin. Measurer P. M.
   Kilmartin. 1.0-m f/7.7 reflector + CCD.
(807) Cerro Tololo Observatory, La Serena  (S30.169136 W70.805900)  Chile.
(F51) Pan-STARRS 1, Haleakala  (N20.707235 W156.255910)  US/Hawaii.
   Observers N. Primak, A. Schultz, S. Watters, J. Thiel, T. Goggia. Measurer
   PS1 Science Consortium. 1.8-m Ritchey-Chrétien + CCD.

Orbital elements:  P1186tj
   Perihelion 2020 Aug 9.829492 +/- 0.144 TT = 19:54:28 (JD 2459071.329492)
Epoch 2020 Oct 30.0 TT = JDT 2459152.5   Earth MOID: 0.2454   Ma: 0.0675
M  17.04622035 +/- 0.27             (J2000 ecliptic)          AutoNEOCP
n   0.21000509 +/- 0.00299          Peri.  225.69125 +/- 0.30
a   2.80317036 +/- 0.0266           Node    87.04454 +/- 0.18
e   0.5611141 +/- 0.00353           Incl.    9.32427 +/- 0.025
P   4.69                   H 20.8   G  0.15   U  8.8  
q 1.23027183 +/- 0.00182    Q 4.37606889 +/- 0.0523
From 12 observations 2020 Oct. 16-30; mean residual 0".28
Residuals in arcseconds: 
201016 F51  .01-  .17+    201017 474  .21-  .24-    201019 474  .31+  .33+    
201016 F51  .24-  .08+    201017 474  .06+  .12-    201030 807  .07-  .87+    
201016 F51  .41+  .02-    201017 474  .21-  .01-    201030 807  .25+  .43-    
201016 F51  .09+  .02-    201019 474  .20-  .17-    201030 807  .18-  .45-    

Ephemerides (geocentric):
Date (UTC) HH   RA              Dec         delta   r     elong  mag " sig PA
---- -- -- --  -------------   -----------  ------ ------ -----  --- ---- ---
2020 10 30 09  23 34 51.625   -23 20 33.83  .72603 1.5313 125.2 22.4 .099 141
2020 10 30 10  23 34 55.207   -23 19 25.90  .72647 1.5316 125.2 22.4 .104 139
2020 10 30 11  23 34 58.789   -23 18 17.98  .72691 1.5318 125.2 22.4 .109 137
2020 10 30 12  23 35 02.370   -23 17 10.09  .72735 1.5321 125.2 22.4 .115 135
2020 10 30 13  23 35 05.951   -23 16 02.22  .72780 1.5323 125.2 22.4 .120 133
2020 10 30 14  23 35 09.531   -23 14 54.37  .72824 1.5326 125.2 22.4 .126 131
2020 10 30 15  23 35 13.111   -23 13 46.55  .72868 1.5328 125.1 22.4 .132 130
2020 10 30 16  23 35 16.691   -23 12 38.75  .72913 1.5331 125.1 22.4 .138 128
2020 10 30 17  23 35 20.270   -23 11 30.97  .72957 1.5334 125.1 22.4 .144 127
2020 10 30 18  23 35 23.848   -23 10 23.22  .73001 1.5336 125.1 22.4 .151 126
2020 10 30 19  23 35 27.427   -23 09 15.48  .73046 1.5339 125.1 22.4 .157 125
2020 10 30 20  23 35 31.005   -23 08 07.77  .73090 1.5341 125.1 22.4 .163 124
2020 10 30 21  23 35 34.582   -23 07 00.09  .73134 1.5344 125.0 22.4 .170 123
2020 10 30 22  23 35 38.159   -23 05 52.42  .73179 1.5347 125.0 22.4 .176 122
2020 10 30 23  23 35 41.736   -23 04 44.78  .73223 1.5349 125.0 22.4 .183 121
2020 10 31 00  23 35 45.312   -23 03 37.17  .73268 1.5352 125.0 22.5 .190 120
2020 10 31 01  23 35 48.888   -23 02 29.57  .73312 1.5354 125.0 22.5 .197 119
2020 10 31 02  23 35 52.464   -23 01 22.00  .73357 1.5357 125.0 22.5 .204 119
2020 10 31 03  23 35 56.039   -23 00 14.45  .73401 1.5360 125.0 22.5 .210 118
2020 10 31 04  23 35 59.614   -22 59 06.93  .73446 1.5362 124.9 22.5 .217 117
2020 10 31 05  23 36 03.188   -22 57 59.42  .73490 1.5365 124.9 22.5 .225 117
2020 10 31 06  23 36 06.762   -22 56 51.94  .73535 1.5367 124.9 22.5 .232 116
2020 10 31 07  23 36 10.336   -22 55 44.49  .73580 1.5370 124.9 22.5 .239 116
2020 10 31 08  23 36 13.909   -22 54 37.05  .73624 1.5373 124.9 22.5 .246 115
2020 10 31 09  23 36 17.482   -22 53 29.64  .73669 1.5375 124.9 22.5 .253 115
2020 10 31 10  23 36 21.054   -22 52 22.25  .73714 1.5378 124.8 22.5 .261 114
2020 10 31 11  23 36 24.626   -22 51 14.89  .73758 1.5380 124.8 22.5 .268 114
2020 10 31 12  23 36 28.198   -22 50 07.54  .73803 1.5383 124.8 22.5 .276 113
2020 10 31 13  23 36 31.769   -22 49 00.23  .73848 1.5386 124.8 22.5 .283 113
2020 10 31 14  23 36 35.340   -22 47 52.93  .73893 1.5388 124.8 22.5 .291 112
2020 10 31 15  23 36 38.911   -22 46 45.66  .73938 1.5391 124.8 22.5 .298 112
2020 10 31 16  23 36 42.481   -22 45 38.41  .73982 1.5393 124.7 22.5 .306 112
2020 10 31 17  23 36 46.051   -22 44 31.18  .74027 1.5396 124.7 22.5 .314 111
2020 10 31 18  23 36 49.620   -22 43 23.97  .74072 1.5399 124.7 22.5 .322 111
2020 10 31 19  23 36 53.190   -22 42 16.79  .74117 1.5401 124.7 22.5 .329 111
2020 10 31 20  23 36 56.758   -22 41 09.63  .74162 1.5404 124.7 22.5 .337 110
2020 10 31 21  23 37 00.327   -22 40 02.50  .74207 1.5406 124.7 22.5 .345 110
2020 10 31 22  23 37 03.895   -22 38 55.38  .74252 1.5409 124.6 22.5 .353 110
2020 10 31 23  23 37 07.462   -22 37 48.29  .74297 1.5412 124.6 22.5 .361 109
2020 11 01 00  23 37 11.030   -22 36 41.23  .74342 1.5414 124.6 22.5 .369 109
2020 11 01 01  23 37 14.597   -22 35 34.18  .74387 1.5417 124.6 22.5 .377 109
2020 11 01 02  23 37 18.163   -22 34 27.16  .74432 1.5419 124.6 22.5 .385 109
2020 11 01 03  23 37 21.730   -22 33 20.16  .74477 1.5422 124.6 22.5 .394 108
2020 11 01 04  23 37 25.296   -22 32 13.19  .74523 1.5425 124.6 22.5 .402 108
2020 11 01 05  23 37 28.861   -22 31 06.24  .74568 1.5427 124.5 22.5 .410 108
2020 11 01 06  23 37 32.426   -22 29 59.31  .74613 1.5430 124.5 22.5 .419 108
2020 11 01 07  23 37 35.991   -22 28 52.40  .74658 1.5433 124.5 22.5 .427 107
2020 11 01 08  23 37 39.556   -22 27 45.52  .74703 1.5435 124.5 22.5 .435 107